Location: Pl�tzky
(52.0521°N, 11.8020°E)
Time: 22:04:16
(UTC+00:00)

Cosmos 1606 - Pass Details

Date: 22 November 2019
Orbit: 504 x 528 km, 82.5° (Epoch: 14 December)

Event Time Altitude Azimuth Distance (km) Brightness Sun altitude
Rises 16:37:16 0° 157° (SSE) 2,600 6.2 -12.6°
Reaches altitude 10° 16:39:40 10° 143° (SE) 1,719 5.1 -12.9°
Maximum altitude 16:42:42 24° 89° (E) 1,091 3.7 -13.4°
Enters shadow 16:43:14 23° 76° (ENE) 1,116 3.7 -13.4°
